Weather History for Cut Bank, MT

Change the Weather History Date:

Wednesday, March 5, 2014

  Actual Average Record
Temperature  
Mean Temperature 21 °F 28 °F  
Max Temperature 40 °F 39 °F 67 °F (1968)
Min Temperature 2 °F 17 °F -27 °F (1951)
Degree Days  
Heating Degree Days 44 37  
Month to date heating degree days 312 188  
Since 1 July heating degree days 6518 6248  
Cooling Degree Days 0 0  
Month to date cooling degree days 0 0  
Year to date cooling degree days 0 0  
Moisture  
Dew Point 11 °F    
Average Humidity 83    
Maximum Humidity 92    
Minimum Humidity 74    
Precipitation  
Precipitation 0.00 in 0.01 in 0.26 in (1981)
Month to date precipitation T 0.06  
Year to date precipitation 0.97 0.47  
Snow  
Snow 0.00 in - - ()
Snow Depth 4.00 in    
Sea Level Pressure  
Sea Level Pressure 29.82 in    
Wind  
Wind Speed 7 mph (East)    
Max Wind Speed 15 mph    
Max Gust Speed 18 mph    
Visibility 10 miles    
Events      
T = Trace of Precipitation, MM = Missing Value Source: NWS Daily Summary

Daily Weather History Graph

Daily Weather History Graph

Search for Another Location

Airport:

Trip Planner

Search our weather history database for the weather conditions in past years. The results will help you decide how hot, cold, wet, or windy it might be!

Date:

Astronomy

Mar. 05, 2014 Rise Set
Actual Time 7:02 AM MST 6:19 PM MST
Civil Twilight 6:31 AM MST 6:51 PM MST
Nautical Twilight 5:55 AM MST 7:27 PM MST
Astronomical Twilight 5:18 AM MST 8:04 PM MST
Moon 9:06 AM MST (3/5) 11:59 PM MST (3/5)
Length of Visible Light 12h 19m
Length of Day
11h 16m
Waxing Crescent, 24% of the Moon is Illuminated
Mar 5
Waxing Crescent
Mar 8
First Quarter
Mar 16
Full
Mar 23
Last Quarter
Mar 30
New

Hourly Weather History & Observations

Time (MST) Temp. Windchill Dew Point Humidity Pressure Visibility Wind Dir Wind Speed Gust Speed Precip Events Conditions
12:56 AM 9.0 °F -2.2 °F 6.1 °F 88% 29.94 in 10.0 mi SE 6.9 mph - N/A   Clear
1:56 AM 8.1 °F -3.2 °F 3.0 °F 80% 29.92 in 10.0 mi Variable 6.9 mph - N/A   Clear
2:56 AM 3.0 °F -4.4 °F -0.0 °F 87% 29.95 in 10.0 mi NE 3.5 mph - N/A   Clear
3:56 AM 3.0 °F -8.0 °F -0.0 °F 87% 29.94 in 10.0 mi NNE 5.8 mph - N/A   Clear
4:56 AM 5.0 °F -6.9 °F 1.9 °F 87% 29.94 in 10.0 mi ESE 6.9 mph - N/A   Clear
5:56 AM 5.0 °F - 1.0 °F 84% 29.95 in 10.0 mi Calm Calm - N/A   Partly Cloudy
6:56 AM 24.1 °F 14.4 °F 19.9 °F 84% 29.90 in 10.0 mi WSW 9.2 mph - N/A   Mostly Cloudy
7:56 AM 15.1 °F 3.3 °F 10.0 °F 80% 29.94 in 10.0 mi SE 9.2 mph - N/A   Mostly Cloudy
8:56 AM 17.1 °F 8.7 °F 12.0 °F 81% 29.93 in 10.0 mi East 5.8 mph - N/A   Clear
9:56 AM 16.0 °F 6.3 °F 10.0 °F 77% 29.90 in 10.0 mi NNE 6.9 mph - N/A   Clear
10:56 AM 17.1 °F 7.6 °F 10.9 °F 77% 29.88 in 10.0 mi East 6.9 mph - N/A   Clear
11:56 AM 18.0 °F 11.1 °F 12.9 °F 81% 29.86 in 10.0 mi ESE 4.6 mph - N/A   Clear
12:56 PM 18.0 °F 9.8 °F 12.0 °F 78% 29.86 in 10.0 mi East 5.8 mph - N/A   Partly Cloudy
1:56 PM 19.0 °F 10.0 °F 14.0 °F 81% 29.82 in 10.0 mi ESE 6.9 mph - N/A   Mostly Cloudy
2:56 PM 21.0 °F 11.4 °F 15.1 °F 78% 29.80 in 10.0 mi SSE 8.1 mph - N/A   Clear
3:56 PM 21.0 °F 10.6 °F 15.1 °F 78% 29.80 in 10.0 mi SSE 9.2 mph - N/A   Clear
4:56 PM 23.0 °F 13.9 °F 16.0 °F 74% 29.79 in 10.0 mi East 8.1 mph - N/A   Clear
5:56 PM 21.9 °F 15.7 °F 16.0 °F 78% 29.78 in 10.0 mi SSE 4.6 mph - N/A   Clear
6:56 PM 25.0 °F 19.3 °F 19.9 °F 81% 29.73 in 10.0 mi SE 4.6 mph - N/A   Clear
7:56 PM 35.1 °F - 28.9 °F 78% 29.73 in 10.0 mi Calm Calm - N/A   Clear
8:56 PM 35.1 °F 28.6 °F 30.0 °F 82% 29.72 in 10.0 mi WNW 8.1 mph - N/A   Clear
9:38 PM 16.0 °F 2.3 °F 12.9 °F 88% 29.62 in 10.0 mi North 12.7 mph - N/A   Clear
9:56 PM 16.0 °F 1.7 °F 12.0 °F 84% 29.77 in 10.0 mi North 13.8 mph - N/A   Clear
10:56 PM 10.9 °F -0.8 °F 9.0 °F 92% 29.77 in 10.0 mi SE 8.1 mph - N/A   Clear
11:33 PM 9.0 °F -2.2 °F 6.1 °F 88% 29.59 in 10.0 mi ENE 6.9 mph - N/A   Partly Cloudy
11:51 PM 6.8 °F -6.9 °F 3.2 °F 85% 29.60 in 9.0 mi East 9.2 mph - N/A   Mostly Cloudy
11:56 PM 7.0 °F -6.6 °F 3.9 °F 87% 29.77 in 10.0 mi ENE 9.2 mph - N/A   Mostly Cloudy